• în Republica Moldova
  • Lista ţărilor
  • Pe 7 zile
  • Temperatura apei
  • Hartă satelitară
  • Meteo pe hartă
  • Widget-uri
  • user-avatar
    Intrare

    Meteo pe oră la Brisbane

    Astăzi, 25 Martie, Sâmbătă

    Timp Temperatura Precipitaţii Vânt Presiune Umiditate
    00:00 +22°C° 0,1 mm 4 m/s 760 mmHg 92%
    01:00 +22°C° 0,1 mm 4 m/s 760 mmHg 92%
    02:00 +22°C° 0 mm 4 m/s 760 mmHg 92%
    03:00 +22°C° 0 mm 4 m/s 760 mmHg 92%
    04:00 +22°C° 0 mm 4 m/s 759 mmHg 91%
    05:00 +22°C° 0,1 mm 4 m/s 759 mmHg 90%
    06:00 +22°C° 0,1 mm 5 m/s 760 mmHg 88%
    07:00 +23°C° 0,1 mm 5 m/s 760 mmHg 87%
    08:00 +25°C° 0 mm 5 m/s 760 mmHg 82%
    09:00 +26°C° 0 mm 5 m/s 760 mmHg 76%
    10:00 +28°C° 0 mm 4 m/s 760 mmHg 70%
    11:00 +28°C° 0 mm 4 m/s 760 mmHg 70%
    12:00 +28°C° 0 mm 5 m/s 760 mmHg 69%
    13:00 +28°C° 0 mm 5 m/s 759 mmHg 69%
    14:00 +28°C° 0 mm 5 m/s 759 mmHg 69%
    15:00 +28°C° 0 mm 5 m/s 759 mmHg 69%
    16:00 +28°C° 0 mm 5 m/s 759 mmHg 69%
    17:00 +27°C° 0 mm 4 m/s 759 mmHg 76%
    18:00 +25°C° 0 mm 4 m/s 759 mmHg 82%
    19:00 +24°C° 0 mm 3 m/s 760 mmHg 89%
    20:00 +22°C° 0 mm 3 m/s 760 mmHg 90%
    21:00 +22°C° 0 mm 3 m/s 760 mmHg 91%
    22:00 +21°C° 0 mm 2 m/s 760 mmHg 93%
    23:00 +21°C° 0 mm 2 m/s 760 mmHg 93%

    Mâine, 26 Martie, Duminică

    Timp Temperatura Precipitaţii Vânt Presiune Umiditate
    00:00 +21°C° 0 mm 2 m/s 760 mmHg 94%
    01:00 +21°C° 0 mm 1 m/s 759 mmHg 94%
    02:00 +21°C° 0 mm 1 m/s 759 mmHg 94%
    03:00 +21°C° 0 mm 1 m/s 759 mmHg 94%
    04:00 +21°C° 0 mm 1 m/s 759 mmHg 94%
    05:00 +22°C° 0 mm 1 m/s 759 mmHg 92%
    06:00 +23°C° 0 mm 1 m/s 760 mmHg 89%
    07:00 +24°C° 0 mm 1 m/s 760 mmHg 87%
    08:00 +26°C° 0 mm 1 m/s 760 mmHg 79%
    09:00 +27°C° 0 mm 1 m/s 760 mmHg 71%
    10:00 +29°C° 0 mm 1 m/s 760 mmHg 63%
    11:00 +30°C° 0 mm 2 m/s 759 mmHg 60%
    12:00 +31°C° 0 mm 2 m/s 759 mmHg 57%
    13:00 +33°C° 0 mm 3 m/s 758 mmHg 55%
    14:00 +31°C° 0 mm 3 m/s 758 mmHg 58%
    15:00 +30°C° 0 mm 4 m/s 758 mmHg 62%
    16:00 +29°C° 0 mm 4 m/s 757 mmHg 65%
    17:00 +28°C° 0 mm 3 m/s 758 mmHg 71%
    18:00 +26°C° 0 mm 3 m/s 759 mmHg 77%
    19:00 +24°C° 0 mm 2 m/s 759 mmHg 83%
    20:00 +24°C° 0 mm 2 m/s 759 mmHg 86%
    21:00 +23°C° 0 mm 2 m/s 760 mmHg 88%
    22:00 +23°C° 0 mm 2 m/s 760 mmHg 90%
    23:00 +23°C° 0 mm 2 m/s 760 mmHg 91%

    Poimâine, 27 Martie, Luni

    Timp Temperatura Precipitaţii Vânt Presiune Umiditate
    00:00 +21°C° 0 mm 2 m/s 760 mmHg 92%
    01:00 +21°C° 0 mm 2 m/s 759 mmHg 93%
    02:00 +21°C° 0 mm 2 m/s 759 mmHg 93%
    03:00 +23°C° 0 mm 2 m/s 759 mmHg 93%
    04:00 +23°C° 0 mm 2 m/s 759 mmHg 93%
    05:00 +24°C° 0 mm 2 m/s 759 mmHg 91%
    06:00 +24°C° 0 mm 3 m/s 759 mmHg 89%
    07:00 +25°C° 0 mm 3 m/s 760 mmHg 87%
    08:00 +26°C° 0,1 mm 3 m/s 760 mmHg 81%
    09:00 +27°C° 0,1 mm 4 m/s 760 mmHg 76%
    10:00 +29°C° 0,1 mm 4 m/s 760 mmHg 71%
    11:00 +29°C° 0,1 mm 5 m/s 760 mmHg 69%
    12:00 +30°C° 0,1 mm 5 m/s 759 mmHg 66%
    13:00 +30°C° 0,1 mm 5 m/s 759 mmHg 64%
    14:00 +30°C° 0 mm 5 m/s 758 mmHg 66%
    15:00 +29°C° 0 mm 5 m/s 758 mmHg 68%
    16:00 +29°C° 0 mm 5 m/s 758 mmHg 70%
    17:00 +27°C° 0 mm 5 m/s 758 mmHg 76%
    18:00 +26°C° 0 mm 4 m/s 759 mmHg 82%
    19:00 +23°C° 0 mm 4 m/s 759 mmHg 88%
    20:00 +23°C° 0 mm 4 m/s 760 mmHg 89%
    21:00 +24°C° 0 mm 3 m/s 760 mmHg 90%
    22:00 +24°C° 0 mm 3 m/s 760 mmHg 90%
    23:00 +24°C° 0 mm 3 m/s 760 mmHg 91%

    28 Martie, Marţi

    Timp Temperatura Precipitaţii Vânt Presiune Umiditate
    00:00 +24°C° 0 mm 2 m/s 759 mmHg 91%
    01:00 +24°C° 0 mm 2 m/s 759 mmHg 91%
    02:00 +24°C° 0 mm 2 m/s 759 mmHg 91%
    03:00 +24°C° 0 mm 2 m/s 758 mmHg 90%
    04:00 +24°C° 0 mm 2 m/s 758 mmHg 90%
    05:00 +24°C° 0 mm 2 m/s 759 mmHg 89%
    06:00 +25°C° 0 mm 2 m/s 759 mmHg 88%
    07:00 +25°C° 0 mm 2 m/s 760 mmHg 86%
    08:00 +26°C° 0 mm 3 m/s 760 mmHg 81%
    09:00 +27°C° 0 mm 3 m/s 760 mmHg 75%
    10:00 +29°C° 0 mm 3 m/s 760 mmHg 69%
    11:00 +29°C° 0 mm 4 m/s 760 mmHg 68%
    12:00 +30°C° 0 mm 4 m/s 759 mmHg 66%
    13:00 +30°C° 0 mm 4 m/s 759 mmHg 64%
    14:00 +30°C° 0 mm 4 m/s 759 mmHg 66%
    15:00 +29°C° 0 mm 5 m/s 758 mmHg 69%
    16:00 +29°C° 0 mm 5 m/s 758 mmHg 71%
    17:00 +27°C° 0 mm 4 m/s 759 mmHg 77%
    18:00 +26°C° 0 mm 4 m/s 759 mmHg 83%
    19:00 +25°C° 0 mm 4 m/s 759 mmHg 89%
    20:00 +24°C° 0 mm 3 m/s 760 mmHg 90%
    21:00 +24°C° 0 mm 3 m/s 760 mmHg 91%
    22:00 +24°C° 0 mm 3 m/s 760 mmHg 92%
    23:00 +24°C° 0 mm 3 m/s 760 mmHg 92%

    29 Martie, Miercuri

    Timp Temperatura Precipitaţii Vânt Presiune Umiditate
    00:00 +24°C° 0 mm 3 m/s 760 mmHg 92%
    01:00 +24°C° 0 mm 3 m/s 759 mmHg 92%
    02:00 +24°C° 0 mm 3 m/s 759 mmHg 91%
    03:00 +24°C° 0 mm 3 m/s 759 mmHg 90%
    04:00 +24°C° 0 mm 3 m/s 759 mmHg 90%
    05:00 +25°C° 0 mm 3 m/s 759 mmHg 88%
    06:00 +25°C° 0 mm 4 m/s 760 mmHg 87%
    07:00 +25°C° 0 mm 4 m/s 760 mmHg 86%
    08:00 +26°C° 0 mm 4 m/s 760 mmHg 82%
    09:00 +26°C° 0 mm 4 m/s 761 mmHg 79%
    10:00 +27°C° 0 mm 4 m/s 761 mmHg 75%
    11:00 +28°C° 0 mm 4 m/s 760 mmHg 72%
    12:00 +28°C° 0 mm 5 m/s 760 mmHg 68%
    13:00 +29°C° 0 mm 5 m/s 760 mmHg 65%
    14:00 +28°C° 0 mm 5 m/s 759 mmHg 67%
    15:00 +28°C° 0 mm 5 m/s 759 mmHg 70%
    16:00 +27°C° 0 mm 4 m/s 759 mmHg 72%
    17:00 +27°C° 0 mm 4 m/s 759 mmHg 76%
    18:00 +26°C° 0 mm 4 m/s 760 mmHg 81%
    19:00 +25°C° 0 mm 3 m/s 760 mmHg 85%
    20:00 +24°C° 0 mm 3 m/s 760 mmHg 86%
    21:00 +24°C° 0 mm 3 m/s 760 mmHg 86%
    22:00 +24°C° 0 mm 3 m/s 760 mmHg 87%
    23:00 +24°C° 0 mm 3 m/s 760 mmHg 86%

    30 Martie, Joi

    Timp Temperatura Precipitaţii Vânt Presiune Umiditate
    00:00 +24°C° 0 mm 3 m/s 759 mmHg 86%
    01:00 +24°C° 0 mm 3 m/s 759 mmHg 85%
    02:00 +24°C° 0 mm 3 m/s 759 mmHg 86%
    03:00 +24°C° 0 mm 3 m/s 758 mmHg 86%
    04:00 +24°C° 0 mm 3 m/s 758 mmHg 87%
    05:00 +24°C° 0 mm 3 m/s 758 mmHg 86%
    06:00 +25°C° 0 mm 3 m/s 758 mmHg 85%
    07:00 +25°C° 0 mm 3 m/s 758 mmHg 84%
    08:00 +25°C° 0,1 mm 4 m/s 758 mmHg 83%
    09:00 +26°C° 0,1 mm 4 m/s 758 mmHg 82%
    10:00 +27°C° 0,1 mm 5 m/s 758 mmHg 80%
    11:00 +26°C° 0,9 mm 5 m/s 757 mmHg 84%
    12:00 +26°C° 0,9 mm 5 m/s 757 mmHg 88%
    13:00 +25°C° 0,9 mm 5 m/s 756 mmHg 92%
    14:00 +26°C° 2,3 mm 5 m/s 756 mmHg 92%
    15:00 +26°C° 2,3 mm 6 m/s 756 mmHg 93%
    16:00 +26°C° 2,3 mm 6 m/s 755 mmHg 94%
    17:00 +26°C° 1,9 mm 5 m/s 756 mmHg 95%
    18:00 +25°C° 1,9 mm 5 m/s 756 mmHg 95%
    19:00 +25°C° 1,9 mm 5 m/s 756 mmHg 95%
    20:00 +25°C° 2,5 mm 5 m/s 756 mmHg 95%
    21:00 +25°C° 2,5 mm 4 m/s 756 mmHg 96%
    22:00 +25°C° 2,5 mm 4 m/s 756 mmHg 96%
    23:00 +25°C° 1,1 mm 4 m/s 755 mmHg 96%
    Arată mai mult